[[{"header":{"parameterUnit":"m.s-1","parameterCategory":1,"la1":30.2991,"la2":30.254,"lo1":-89.0895,"lo2":-89.0444,"dy":0.0017,"dx":0.0017,"nx":28,"ny":28,"refTime":"2025-04-30T09:00:00:Z","depth":0,"parameterNumber":2,"parameterNumberName":"U-component_of_WINDS"},"data":[0,0,0,0,0,0,0,0,0,0,0,0,0,0,0,0,0,0,0,0,0,0,0,0,0,0,0,0,0,0,0,0,0,0,0,0,0,0,0,0,0,0,0,0,0,0,0,0,0,0,0,0,0,0,0,0,0,0,-0.7893,-0.7894,0,-0.803,-0.8032,-0.8033,-0.8102,-0.8102,-0.8102,-0.8102,-0.8249,-0.8252,-0.8256,0,0,0,0,0,0,0,0,0,0,0,0,0,-0.7696,-0.7699,-0.7893,-0.7894,-0.7896,-0.803,-0.8032,-0.8034,-0.8102,-0.8102,-0.8102,-0.8102,-0.8247,-0.8252,-0.8256,0,0,0,0,0,0,0,0,0,0,0,0,0,-0.7802,-0.77,-0.7892,-0.7946,-0.7953,-0.803,-0.8032,-0.8034,-0.8102,-0.8102,-0.8102,-0.8102,-0.8246,-0.8251,-0.8257,-0.8292,0,0,-0.8275,-0.8277,0,0,0,0,0,0,0,0,-0.7796,-0.781,-0.7937,-0.7943,-0.795,-0.8049,-0.8016,-0.8121,-0.8102,-0.8046,-0.8102,-0.8102,-0.8183,-0.8194,-0.8219,-0.8299,-0.8306,-0.8275,-0.8279,-0.8281,-0.8283,0,0,0,0,0,0,0,-0.7789,-0.7804,-0.7947,-0.7939,-0.7947,-0.7966,-0.7981,-0.8036,-0.8113,-0.8051,-0.8056,-0.8071,-0.8186,-0.8214,-0.8223,-0.8308,-0.8275,-0.828,-0.8284,-0.8286,-0.8426,-0.8426,0,0,0,0,0,0,-0.7772,-0.7797,-0.7943,-0.7952,-0.7871,-0.7969,-0.7986,-0.8017,-0.8112,-0.8126,-0.8071,-0.8074,-0.8204,-0.8217,-0.8229,-0.8277,-0.8281,-0.8287,-0.829,-0.8425,-0.8426,-0.8426,0,0,0,0,0,0,-0.7767,-0.7784,-0.7938,-0.7876,-0.7897,-0.7973,-0.8007,-0.802,-0.8048,-0.8127,-0.8142,-0.8084,-0.8204,-0.8221,-0.8276,-0.8283,-0.8289,-0.8295,-0.8425,-0.8425,-0.8426,-0.8374,0,0,0,0,0,0,-0.7761,-0.7782,-0.7795,-0.7876,-0.79,-0.798,-0.8007,-0.8023,-0.8057,-0.8062,-0.8144,-0.8158,-0.8206,-0.8267,-0.8282,-0.8292,-0.8299,-0.8425,-0.8425,-0.8426,-0.8375,-0.8373,-0.837,0,0,0,0,0,-0.7754,-0.7776,-0.7795,-0.7812,-0.7917,-0.7981,-0.7995,-0.8048,-0.8057,-0.8072,-0.8123,-0.8155,-0.828,-0.8272,-0.8289,-0.8301,-0.8425,-0.8425,-0.8426,-0.8377,-0.8373,-0.837,0,0,0,0,0,0,-0.7696,-0.7787,-0.781,-0.7858,-0.7911,-0.7992,-0.8012,-0.8042,-0.8095,-0.8098,-0.8164,-0.8182,-0.8231,-0.8272,-0.8262,-0.8341,-0.8356,-0.836,-0.8313,-0.831,-0.8307,-0.8297,-0.8304,0,0,0,0,0,-0.7688,-0.773,-0.7809,-0.7844,-0.7869,-0.7935,-0.7965,-0.8002,-0.806,-0.8083,-0.8139,-0.8196,-0.8248,-0.8281,-0.8334,-0.8382,-0.8402,-0.8398,-0.8395,-0.8393,-0.8396,-0.8426,-0.8425,-0.8427,-0.8427,-0.8427,0,0,-0.7673,-0.7728,-0.7751,-0.7833,-0.7878,-0.7923,-0.7954,-0.7999,-0.8033,-0.8091,-0.8146,-0.8189,-0.8257,-0.8309,-0.8335,-0.8344,-0.84,-0.8393,-0.8391,-0.8395,-0.8426,-0.8426,-0.8426,-0.8428,-0.8428,-0.8428,0,0,-0.7669,-0.7714,-0.7748,-0.7793,-0.7861,-0.7905,-0.7913,-0.799,-0.8021,-0.8077,-0.8121,-0.8164,-0.8252,-0.8299,-0.8334,-0.8349,-0.8381,-0.8364,-0.835,-0.8378,-0.8378,-0.8379,-0.8385,-0.8386,-0.8367,-0.8366,-0.8366,0,-0.7642,-0.7709,-0.7763,-0.7805,-0.7841,-0.7893,-0.793,-0.7971,-0.8053,-0.8078,-0.8087,-0.8199,-0.8249,-0.8313,-0.8316,-0.8343,-0.8356,-0.8355,-0.8374,-0.8374,-0.8375,-0.8382,-0.8384,-0.8364,-0.8364,-0.8365,-0.8365,0,-0.7673,-0.7719,-0.7739,-0.7815,-0.7853,-0.7892,-0.7954,-0.7986,-0.802,-0.8064,-0.8122,-0.8183,-0.8249,-0.8267,-0.83,-0.8337,-0.8341,-0.8361,-0.8377,-0.8372,-0.8379,-0.8382,-0.8361,-0.8361,-0.8362,-0.8363,0,0,-0.7636,-0.7741,-0.7748,-0.7783,-0.7862,-0.7899,-0.7942,-0.8005,-0.8032,-0.8087,-0.8126,-0.82,-0.8219,-0.8259,-0.8299,-0.8323,-0.8332,-0.8341,-0.8344,-0.8338,-0.8377,-0.8362,-0.8364,-0.8354,-0.8354,-0.8355,-0.8372,0,-0.7643,-0.772,-0.777,-0.7828,-0.7871,-0.7922,-0.796,-0.8013,-0.8056,-0.8101,-0.8149,-0.82,-0.8221,-0.8246,-0.8273,-0.8325,-0.8341,-0.8325,-0.8392,-0.8394,-0.8374,-0.8368,-0.8352,-0.8365,-0.8375,-0.8376,-0.8376,0,-0.7662,-0.7714,-0.7775,-0.7849,-0.787,-0.7902,-0.7965,-0.8006,-0.8069,-0.8099,-0.8143,-0.8183,-0.8233,-0.8244,-0.8314,-0.8302,-0.8333,-0.8363,-0.8365,-0.8374,-0.8385,-0.8377,-0.837,-0.8372,-0.8381,-0.8381,-0.838,0,-0.7629,-0.7715,-0.7763,-0.7791,-0.788,-0.7901,-0.794,-0.8002,-0.8037,-0.8093,-0.8116,-0.8177,-0.8211,-0.8258,-0.8314,-0.8317,-0.8379,-0.8395,-0.8407,-0.8405,-0.8418,-0.8417,-0.8416,-0.8436,-0.8436,-0.8436,-0.8436,0,-0.7632,-0.7668,-0.7749,-0.7779,-0.7821,-0.788,-0.7921,-0.7963,-0.8019,-0.8059,-0.8107,-0.8145,-0.8216,-0.8263,-0.8308,-0.836,-0.8375,-0.8401,-0.8413,-0.8397,-0.8394,-0.8419,-0.842,-0.8437,-0.8437,-0.8437,-0.8437,0,-0.7603,-0.7659,-0.7714,-0.7793,-0.7814,-0.7841,-0.791,-0.7942,-0.7987,-0.8037,-0.8053,-0.8124,-0.8182,-0.8243,-0.8321,-0.8352,-0.8402,-0.8418,-0.838,-0.8387,-0.8395,-0.8394,-0.8412,-0.8418,-0.8432,-0.8432,-0.8432,0,-0.7602,-0.763,-0.7711,-0.7741,-0.7777,-0.7824,-0.786,-0.792,-0.7955,-0.8029,-0.8053,-0.8113,-0.8165,-0.8255,-0.8316,-0.8377,-0.8395,-0.8397,-0.8405,-0.8388,-0.8396,-0.8394,-0.8398,-0.8394,-0.8394,-0.8394,-0.8393,0,-0.7594,-0.762,-0.7668,-0.7726,-0.7767,-0.7816,-0.7868,-0.789,-0.796,-0.7998,-0.8056,-0.8096,-0.8176,-0.8237,-0.8305,-0.8347,-0.8383,-0.839,-0.8396,-0.8381,-0.8358,-0.8372,-0.8374,-0.839,-0.839,-0.839,-0.8391,-0.8391,-0.7579,-0.7607,-0.7668,-0.7721,-0.7766,-0.7813,-0.7847,-0.7895,-0.7945,-0.8013,-0.8046,-0.8105,-0.8169,-0.8264,-0.8305,-0.8353,-0.8364,-0.8372,-0.8375,-0.8376,-0.8372,-0.835,-0.8366,-0.8366,-0.8366,-0.8367,-0.8367,0,-0.7574,-0.7616,-0.7664,-0.7733,-0.7775,-0.7803,-0.7862,-0.7896,-0.7946,-0.8002,-0.8051,-0.812,-0.8179,-0.8244,-0.8307,-0.8334,-0.8352,-0.8349,-0.8348,-0.8357,-0.8359,-0.8348,-0.8333,-0.8333,-0.8333,-0.8333,-0.8333,-0.8333,-0.7577,-0.7626,-0.7659,-0.7732,-0.7774,-0.7831,-0.7862,-0.7906,-0.7951,-0.8024,-0.8073,-0.8114,-0.8174,-0.8243,-0.8299,-0.8317,-0.8339,-0.8331,-0.8353,-0.8354,-0.8357,-0.8359,-0.8349,-0.8335,-0.8335,-0.8348,-0.8348,-0.8348]},{"header":{"parameterUnit":"m.s-1","parameterCategory":1,"la1":30.2991,"la2":30.254,"lo1":-89.0895,"lo2":-89.0444,"dy":0.0017,"dx":0.0017,"nx":28,"ny":28,"refTime":"2025-04-30T09:00:00:Z","depth":0,"parameterNumber":3,"parameterNumberName":"V-component_of_WINDS"},"data":[0,0,0,0,0,0,0,0,0,0,0,0,0,0,0,0,0,0,0,0,0,0,0,0,0,0,0,0,0,0,0,0,0,0,0,0,0,0,0,0,0,0,0,0,0,0,0,0,0,0,0,0,0,0,0,0,0,0,5.3087,5.3088,0,5.3171,5.3172,5.3173,5.3129,5.3127,5.3125,5.3123,5.3206,5.321,5.3214,0,0,0,0,0,0,0,0,0,0,0,0,0,5.2884,5.2888,5.3087,5.3088,5.3089,5.3171,5.3172,5.3174,5.313,5.3127,5.3124,5.3122,5.3204,5.321,5.3215,0,0,0,0,0,0,0,0,0,0,0,0,0,5.2971,5.2889,5.3087,5.3077,5.3077,5.3171,5.3172,5.3174,5.313,5.3127,5.3124,5.312,5.3203,5.3209,5.3215,5.3322,0,0,5.3235,5.3238,0,0,0,0,0,0,0,0,5.2966,5.2978,5.3077,5.3078,5.3078,5.3137,5.3131,5.3224,5.3131,5.311,5.3123,5.3119,5.3185,5.3193,5.3216,5.3326,5.333,5.3236,5.324,5.3242,5.3244,0,0,0,0,0,0,0,5.296,5.2974,5.312,5.3079,5.3079,5.3067,5.3076,5.3149,5.3165,5.3112,5.3109,5.3119,5.3185,5.321,5.3218,5.3331,5.3235,5.3241,5.3245,5.3248,5.3533,5.3537,0,0,0,0,0,0,5.2955,5.297,5.3117,5.3123,5.3013,5.3074,5.3083,5.3121,5.3164,5.3168,5.3122,5.3117,5.3201,5.321,5.322,5.3348,5.3242,5.3248,5.3252,5.3529,5.3534,5.3538,0,0,0,0,0,0,5.2951,5.2968,5.3114,5.3045,5.3063,5.3081,5.3124,5.3125,5.315,5.3173,5.3175,5.3145,5.3198,5.3211,5.3298,5.3351,5.3251,5.3257,5.3525,5.3531,5.3536,5.3605,0,0,0,0,0,0,5.2945,5.2967,5.3009,5.3047,5.3067,5.3191,5.3127,5.3129,5.3161,5.3155,5.3195,5.3198,5.3197,5.3288,5.3304,5.3358,5.3262,5.352,5.3528,5.3534,5.3598,5.3613,5.3625,0,0,0,0,0,5.2938,5.3024,5.3011,5.3029,5.312,5.3194,5.3206,5.3203,5.3166,5.3207,5.3222,5.3197,5.3343,5.3297,5.3315,5.3371,5.3517,5.3526,5.3534,5.3592,5.361,5.3624,0,0,0,0,0,0,5.2991,5.3029,5.3015,5.3117,5.3153,5.3187,5.3239,5.3222,5.3269,5.3261,5.3255,5.3264,5.3354,5.3371,5.332,5.3477,5.3424,5.3436,5.3462,5.3479,5.3492,5.3486,5.3268,0,0,0,0,0,5.3015,5.3073,5.3103,5.319,5.3209,5.3221,5.3253,5.3249,5.3285,5.33,5.3321,5.3357,5.341,5.3446,5.3496,5.3601,5.3608,5.3648,5.3661,5.3672,5.3682,5.3739,5.3756,5.3565,5.3565,5.3565,0,0,5.3064,5.3092,5.3129,5.3201,5.3228,5.3288,5.3234,5.3299,5.3343,5.3309,5.3392,5.3409,5.3448,5.3544,5.3587,5.3561,5.3737,5.3683,5.3691,5.3696,5.3749,5.3767,5.3783,5.3571,5.357,5.3569,0,0,5.3184,5.3212,5.3287,5.3316,5.3358,5.3366,5.3384,5.3421,5.3431,5.3515,5.3491,5.3542,5.3635,5.3664,5.3691,5.3823,5.3801,5.3839,5.3908,5.3962,5.3978,5.3991,5.4037,5.4054,5.385,5.385,5.385,0,5.3239,5.333,5.3327,5.3395,5.3427,5.34,5.3476,5.3503,5.356,5.3582,5.3553,5.3669,5.3693,5.3795,5.3828,5.3851,5.387,5.3834,5.3976,5.3989,5.4001,5.4046,5.4063,5.3854,5.3854,5.3853,5.3853,0,5.3395,5.3458,5.3514,5.357,5.3608,5.368,5.3687,5.3726,5.3718,5.3729,5.3813,5.3842,5.3898,5.3922,5.3915,5.4023,5.4006,5.3976,5.3922,5.4024,5.4065,5.4082,5.386,5.3859,5.3857,5.3856,0,0,5.3551,5.3606,5.3626,5.3651,5.3697,5.3745,5.3814,5.387,5.3903,5.3943,5.4001,5.4081,5.4054,5.4084,5.408,5.4128,5.423,5.4092,5.4093,5.4116,5.4351,5.4372,5.4392,5.4216,5.4219,5.4222,5.4347,0,5.3674,5.3797,5.3797,5.391,5.3967,5.3943,5.4004,5.4037,5.4049,5.4099,5.4111,5.4168,5.4128,5.4146,5.4193,5.4208,5.4277,5.4199,5.4268,5.4271,5.4259,5.4414,5.4437,5.4553,5.4363,5.4366,5.4368,0,5.3833,5.388,5.3999,5.4036,5.406,5.4115,5.4166,5.4214,5.4252,5.4257,5.4291,5.428,5.4349,5.4294,5.439,5.4337,5.4365,5.4377,5.4381,5.4387,5.4325,5.4423,5.4591,5.4608,5.4394,5.4392,5.439,0,5.3934,5.4026,5.411,5.4132,5.4177,5.4216,5.4237,5.4271,5.4305,5.4349,5.4371,5.4422,5.4451,5.449,5.4493,5.4452,5.4589,5.4534,5.4594,5.4594,5.4623,5.4621,5.4798,5.4643,5.4643,5.4643,5.4642,0,5.4071,5.4145,5.4156,5.4207,5.4288,5.4287,5.4368,5.4384,5.4415,5.4468,5.445,5.45,5.4501,5.4551,5.4553,5.4632,5.4645,5.465,5.465,5.4652,5.4651,5.467,5.4661,5.4647,5.4646,5.4645,5.4644,0,5.4197,5.4207,5.4297,5.4332,5.4343,5.4402,5.4432,5.448,5.449,5.4558,5.4574,5.4589,5.4648,5.4655,5.4723,5.4724,5.4819,5.481,5.4807,5.4805,5.4865,5.4859,5.5059,5.5085,5.4914,5.4915,5.4917,0,5.4283,5.434,5.4382,5.4417,5.444,5.4496,5.4531,5.4532,5.4568,5.4615,5.4658,5.4715,5.4761,5.4856,5.4873,5.4925,5.4917,5.4983,5.4925,5.4925,5.4917,5.4914,5.4919,5.4995,5.4996,5.4998,5.4999,0,5.4436,5.4438,5.4489,5.4542,5.4584,5.4626,5.4665,5.4694,5.47,5.4742,5.4802,5.4838,5.4908,5.4965,5.5017,5.5036,5.5019,5.5018,5.5034,5.5036,5.5032,5.5035,5.4837,5.5013,5.5012,5.5011,5.501,5.5009,5.4544,5.4593,5.4631,5.4688,5.4718,5.4755,5.4802,5.4818,5.4869,5.4927,5.4924,5.4991,5.5027,5.5094,5.5118,5.5169,5.5147,5.5171,5.5177,5.5183,5.5189,5.5025,5.5179,5.5178,5.5178,5.5178,5.5177,0,5.4695,5.4718,5.4771,5.4827,5.4872,5.4852,5.4894,5.4933,5.4993,5.5028,5.5074,5.5143,5.5198,5.522,5.5274,5.5311,5.5304,5.5325,5.5322,5.5327,5.5206,5.5186,5.5329,5.5329,5.5329,5.5329,5.5329,5.5329,5.4779,5.486,5.4867,5.4963,5.4985,5.5051,5.5077,5.5111,5.5139,5.5218,5.5264,5.5278,5.5308,5.5363,5.5413,5.5418,5.5438,5.5462,5.5464,5.535,5.5335,5.532,5.5302,5.5467,5.5467,5.558,5.5581,5.5582]}]]